Back to catalog

CHINASAT 1C

AliveCommunicationsGEO
NORAD 41103·PAYLOAD·🇨🇳 China

Launched Dec 9, 2015 from Xichang Satellite Launch Center

Loading…

TLE

FreshSource: Space-Track

Epoch: Sep 14, 2026, 05:19 UTC

1 41103U 15073A   26257.22186407 -.00000080  00000-0  00000-0 0  9996
2 41103   7.3219  67.8710 0006263 175.5412 205.4989  0.99169713 39435

Track CHINASAT 1C in real time with AllMySat

Download on the App Store